GW3407 Weather Reports


time (UTC)temp
C
wind
direction
speed
KPH
gust
KPH
rain 1hr
cm
rain 24hr
cm
rain mn
cm
humidity
%
barometer
mb
20260505093024 17 250 3.2 4.8 0.00 0.00 0.00 69 1009.1
20260505092522 17 151 0.0 4.8 0.00 0.00 0.00 69 1008.8
20260505092020 17 57 8.0 8.0 0.00 0.00 0.00 68 1009.1
20260505091516 17 173 0.0 4.8 0.00 0.00 0.00 68 1008.8
20260505091015 17 109 0.0 4.8 0.00 0.00 0.00 68 1008.7
20260505090512 17 23 0.0 6.4 0.00 0.00 0.00 67 1008.5
20260505090010 17 248 0.0 9.7 0.00 0.00 0.00 66 1008.7
20260505085508 18 82 1.6 4.8 0.00 0.00 0.00 65 1008.4
20260505085006 18 204 3.2 16.1 0.00 0.00 0.00 64 1008.4
20260505084504 18 266 4.8 17.7 0.00 0.00 0.00 64 1008.5
20260505084001 18 247 3.2 9.7 0.00 0.00 0.00 65 1008.2
20260505083458 18 315 4.8 11.3 0.00 0.00 0.00 66 1008.5
20260505082954 18 236 0.0 4.8 0.00 0.00 0.00 65 1008.6
20260505082450 18 205 0.0 6.4 0.00 0.00 0.00 65 1008.6
20260505081947 18 90 4.8 6.4 0.00 0.00 0.00 65 1008.5
20260505081444 18 214 6.4 17.7 0.00 0.00 0.00 64 1008.4
20260505080941 18 290 0.0 8.0 0.00 0.00 0.00 64 1008.4
20260505080437 18 300 1.6 8.0 0.00 0.00 0.00 66 1008.5
20260505075932 18 258 4.8 9.7 0.00 0.00 0.00 64 1008.6
20260505075429 18 200 4.8 8.0 0.00 0.00 0.00 64 1008.2
20260505074927 18 227 6.4 9.7 0.00 0.00 0.00 65 1008.5
20260505074424 18 273 11.3 16.1 0.00 0.00 0.00 64 1008.4
20260505073921 18 330 4.8 9.7 0.00 0.00 0.00 64 1008.4
20260505073419 18 233 8.0 11.3 0.00 0.00 0.00 66 1008.1
20260505072916 18 240 3.2 20.9 0.00 0.00 0.00 63 1008.1
20260505072412 18 315 0.0 9.7 0.00 0.00 0.00 65 1008.1
20260505071908 18 281 8.0 14.5 0.00 0.00 0.00 64 1008.1
20260505071404 18 90 0.0 9.7 0.00 0.00 0.00 65 1008.2
20260505070903 18 198 3.2 8.0 0.00 0.00 0.00 64 1007.9
20260505070358 18 188 3.2 6.4 0.00 0.00 0.00 66 1008.1
20260505065854 18 251 4.8 8.0 0.00 0.00 0.00 65 1008.1
20260505065351 18 270 1.6 6.4 0.00 0.00 0.00 64 1008.4
20260505064848 18 270 1.6 8.0 0.00 0.00 0.00 64 1008.4
20260505064345 18 292 3.2 8.0 0.00 0.00 0.00 63 1008.1
20260505063844 18 292 8.0 8.0 0.00 0.00 0.00 63 1008.4
20260505063339 18 203 1.6 8.0 0.00 0.00 0.00 63 1008.4
20260505062836 18 225 4.8 8.0 0.00 0.00 0.00 64 1008.4
20260505062333 18 339 0.0 4.8 0.00 0.00 0.00 66 1008.1
20260505061830 18 180 3.2 8.0 0.00 0.00 0.00 66 1008.5
20260505061328 18 236 3.2 8.0 0.00 0.00 0.00 65 1008.6
20260505060825 17 190 0.0 6.4 0.00 0.00 0.00 66 1008.4
20260505060322 17 180 0.0 6.4 0.00 0.00 0.00 65 1008.5
20260505055818 18 210 0.0 9.7 0.00 0.00 0.00 64 1008.2
20260505055314 17 265 3.2 4.8 0.00 0.00 0.00 66 1008.6
20260505054812 17 198 3.2 6.4 0.00 0.00 0.00 67 1008.6
20260505054309 17 90 0.0 4.8 0.00 0.00 0.00 66 1008.4
20260505053807 17 121 0.0 8.0 0.00 0.00 0.00 66 1008.7
20260505053304 17 103 3.2 6.4 0.00 0.00 0.00 67 1008.4
20260505052800 17 188 0.0 4.8 0.00 0.00 0.00 67 1008.4
20260505052257 18 187 0.0 6.4 0.00 0.00 0.00 65 1008.4
20260505051754 17 220 3.2 4.8 0.00 0.00 0.00 67 1008.2
20260505051252 17 173 1.6 4.8 0.00 0.00 0.00 68 1008.5
20260505050750 16 98 0.0 4.8 0.00 0.00 0.00 69 1008.6
20260505050248 16 206 1.6 3.2 0.00 0.00 0.00 71 1008.4
20260505041718 17 109 0.0 4.8 0.00 0.00 0.00 70 1007.8
20260505041215 17 90 1.6 3.2 0.00 0.00 0.00 70 1007.9
20260505040712 17 180 1.6 3.2 0.00 0.00 0.00 70 1007.7
20260505040209 17 90 0.0 3.2 0.00 0.00 0.00 72 1007.8
20260505035706 17 176 0.0 4.8 0.00 0.00 0.00 73 1007.8
20260505035202 17 265 0.0 4.8 0.00 0.00 0.00 69 1007.8
20260505034658 17 192 1.6 4.8 0.00 0.00 0.00 72 1007.5
20260505034150 17 270 0.0 3.2 0.00 0.00 0.00 72 1007.7
20260505033646 17 274 0.0 6.4 0.00 0.00 0.00 72 1007.6
20260505033145 17 303 3.2 4.8 0.00 0.00 0.00 71 1007.7
20260505032642 17 206 0.0 4.8 0.00 0.00 0.00 73 1007.6
20260505032139 17 206 0.0 6.4 0.00 0.00 0.00 72 1007.5
20260505031636 17 216 4.8 4.8 0.00 0.00 0.00 72 1007.6
20260505031132 17 270 3.2 8.0 0.00 0.00 0.00 72 1007.5
20260505030630 17 188 3.2 4.8 0.00 0.00 0.00 72 1007.6
20260505030125 16 145 0.0 4.8 0.00 0.00 0.00 76 1007.4
20260505025621 16 135 3.2 6.4 0.00 0.00 0.00 76 1007.4
20260505025120 16 187 0.0 4.8 0.00 0.00 0.00 80 1007.5
20260505024617 15 90 0.0 3.2 0.00 0.00 0.00 82 1007.4
20260505024114 15 215 0.0 3.2 0.00 0.00 0.00 84 1007.5
20260505023611 15 185 4.8 6.4 0.00 0.00 0.00 86 1007.4
20260505023109 15 180 1.6 4.8 0.00 0.00 0.00 86 1007.5
20260505022606 15 180 0.0 4.8 0.00 0.00 0.00 86 1007.6
20260505022103 15 206 0.0 4.8 0.00 0.00 0.00 85 1007.5
20260505021600 15 270 0.0 4.8 0.00 0.00 0.00 85 1007.3
20260505021057 15 127 4.8 4.8 0.00 0.00 0.00 84 1007.6
20260505020556 15 198 0.0 4.8 0.00 0.00 0.00 84 1007.5
20260505020054 15 195 0.0 4.8 0.00 0.00 0.00 85 1007.4
20260505015551 15 264 0.0 4.8 0.00 0.00 0.00 86 1007.5
20260505015047 15 144 0.0 3.2 0.00 0.00 0.00 87 1007.3
20260505014544 15 289 0.0 3.2 0.00 0.00 0.00 87 1007.3
20260505014041 15 138 4.8 4.8 0.00 0.00 0.00 87 1007.4
20260505013538 15 180 1.6 3.2 0.00 0.00 0.00 88 1007.2
20260505013036 15 270 0.0 4.8 0.00 0.00 0.00 88 1007.3
20260505012534 15 240 1.6 4.8 0.00 0.00 0.00 86 1007.3
20260505012030 15 180 0.0 4.8 0.00 0.00 0.00 86 1007.3
20260505011526 15 195 0.0 4.8 0.00 0.00 0.00 85 1007.1
20260505011023 16 278 0.0 4.8 0.00 0.00 0.00 85 1007.3
20260505010518 16 157 1.6 4.8 0.00 0.00 0.00 85 1007.2
20260505010016 16 259 0.0 4.8 0.00 0.00 0.00 83 1007.2
20260505005512 16 270 0.0 3.2 0.00 0.00 0.00 83 1007.2
20260505005010 16 209 0.0 3.2 0.00 0.00 0.00 83 1007.3
20260505004506 16 114 1.6 4.8 0.00 0.00 0.00 82 1007.2
20260505004003 17 171 3.2 4.8 0.00 0.00 0.00 80 1007.2
20260505003500 17 203 1.6 3.2 0.00 0.00 0.00 79 1007.4
20260505002956 17 180 3.2 3.2 0.00 0.00 0.00 78 1007.0
20260505002452 18 212 0.0 4.8 0.00 0.00 0.00 77 1007.1
20260505001951 18 231 0.0 3.2 0.00 0.00 0.00 75 1007.2
20260505001448 18 139 3.2 4.8 0.00 0.00 0.00 75 1007.2
20260505000945 19 157 3.2 3.2 0.00 0.00 0.00 73 1007.2
20260505000443 20 166 0.0 3.2 0.00 0.00 0.00 71 1007.2
20260504235940 20 162 0.0 4.8 0.00 0.00 0.00 71 1007.4
20260504235437 20 180 1.6 3.2 0.00 0.00 0.00 70 1007.4
20260504234933 21 166 0.0 3.2 0.00 0.00 0.00 72 1007.3
20260504234431 21 240 0.0 3.2 0.00 0.00 0.00 71 1007.4
20260504233927 21 277 1.6 3.2 0.00 0.00 0.00 70 1007.4
20260504233423 22 191 0.0 4.8 0.00 0.00 0.00 61 1007.4
20260504232920 22 342 0.0 1.6 0.00 0.00 0.00 60 1007.3
20260504232417 22 166 0.0 3.2 0.00 0.00 0.00 60 1007.1
20260504231914 22 117 0.0 1.6 0.00 0.00 0.00 59 1007.4
20260504231410 22 209 0.0 3.2 0.00 0.00 0.00 60 1007.5
20260504230907 23 154 0.0 3.2 0.00 0.00 0.00 57 1007.2
20260504230404 23 176 3.2 3.2 0.00 0.00 0.00 57 1007.5
20260504225903 23 81 0.0 3.2 0.00 0.00 0.00 60 1007.7
20260504225359 22 180 0.0 1.6 0.00 0.00 0.00 59 1007.8
20260504224857 23 66 0.0 4.8 0.00 0.00 0.00 56 1007.8
20260504224353 23 297 0.0 4.8 0.00 0.00 0.00 57 1008.0
20260504223850 23 192 0.0 3.2 0.00 0.00 0.00 57 1007.9
20260504223345 23 225 0.0 12.9 0.00 0.00 0.00 53 1008.2
20260504222842 24 262 4.8 6.4 0.00 0.00 0.00 54 1008.0
20260504222339 24 74 0.0 3.2 0.00 0.00 0.00 56 1007.9
20260504221837 23 270 1.6 12.9 0.00 0.00 0.00 54 1008.1
20260504221334 24 286 1.6 4.8 0.00 0.00 0.00 52 1008.2
20260504220831 25 251 0.0 4.8 0.00 0.00 0.00 53 1008.4
20260504220327 25 187 1.6 8.0 0.00 0.00 0.00 53 1008.0
20260504215825 24 253 3.2 8.0 0.00 0.00 0.00 53 1008.2
20260504215321 24 254 6.4 9.7 0.00 0.00 0.00 52 1008.2
20260504214817 23 37 3.2 8.0 0.00 0.00 0.00 55 1008.5
20260504214314 23 260 3.2 9.7 0.00 0.00 0.00 55 1008.4
20260504213811 23 225 6.4 11.3 0.00 0.00 0.00 56 1008.5
20260504213307 24 82 4.8 4.8 0.00 0.00 0.00 55 1008.5
20260504212804 23 121 0.0 9.7 0.00 0.00 0.00 55 1008.6
20260504212300 23 90 1.6 9.7 0.00 0.00 0.00 52 1008.7
20260504211758 23 38 0.0 4.8 0.00 0.00 0.00 54 1008.6
20260504211254 23 255 0.0 9.7 0.00 0.00 0.00 55 1008.5
20260504210752 22 268 8.0 16.1 0.00 0.00 0.00 56 1008.5
20260504210249 22 205 6.4 6.4 0.00 0.00 0.00 58 1008.8
20260504205746 21 248 4.8 11.3 0.00 0.00 0.00 58 1008.5
20260504205243 22 239 6.4 12.9 0.00 0.00 0.00 56 1008.9
20260504204741 22 117 0.0 4.8 0.00 0.00 0.00 59 1008.8
20260504204239 22 105 0.0 6.4 0.00 0.00 0.00 57 1008.7
20260504203738 22 307 4.8 30.6 0.00 0.00 0.00 57 1008.5
20260504203235 21 252 6.4 25.7 0.00 0.00 0.00 58 1008.4
20260504202735 21 297 3.2 8.0 0.00 0.00 0.00 58 1008.0
20260504202233 22 315 3.2 11.3 0.00 0.00 0.00 60 1008.0
20260504201730 21 90 6.4 8.0 0.00 0.00 0.00 61 1008.1
20260504201227 20 282 4.8 9.7 0.00 0.00 0.00 61 1008.4
20260504200725 21 242 6.4 9.7 0.00 0.00 0.00 60 1008.9
20260504200220 21 294 6.4 16.1 0.00 0.00 0.00 59 1008.7
20260504195717 21 292 11.3 20.9 0.00 0.00 0.00 58 1008.7
20260504195213 22 3 4.8 11.3 0.00 0.00 0.00 58 1008.4
20260504194710 22 266 4.8 9.7 0.00 0.00 0.00 56 1008.2
20260504194206 22 345 0.0 20.9 0.00 0.00 0.00 59 1008.1
20260504193703 22 280 8.0 16.1 0.00 0.00 0.00 57 1008.5
20260504193200 21 217 4.8 9.7 0.00 0.00 0.00 55 1008.8
20260504192659 21 259 3.2 27.4 0.00 0.00 0.00 54 1009.1
20260504192156 22 265 3.2 16.1 0.00 0.00 0.00 52 1009.1
20260504191655 22 261 4.8 17.7 0.00 0.00 0.00 54 1008.9
20260504191150 23 251 0.0 16.1 0.00 0.00 0.00 56 1008.7
20260504190646 23 251 4.8 17.7 0.00 0.00 0.00 54 1008.9
20260504190143 23 290 6.4 8.0 0.00 0.00 0.00 54 1009.0
20260504185639 23 313 9.7 14.5 0.00 0.00 0.00 53 1009.0
20260504185136 23 21 0.0 8.0 0.00 0.00 0.00 60 1009.1
20260504184632 23 20 0.0 8.0 0.00 0.00 0.00 59 1009.3
20260504184127 22 254 6.4 17.7 0.00 0.00 0.00 54 1009.5
20260504183625 22 285 4.8 22.5 0.00 0.00 0.00 53 1009.2
20260504183122 22 192 3.2 32.2 0.00 0.00 0.00 54 1009.4
20260504182620 23 278 4.8 20.9 0.00 0.00 0.00 53 1009.4
20260504182117 22 272 8.0 9.7 0.00 0.00 0.00 52 1009.4
20260504181614 22 0 1.6 17.7 0.00 0.00 0.00 55 1009.3
20260504181112 23 262 9.7 20.9 0.00 0.00 0.00 56 1009.5
20260504180611 22 282 9.7 20.9 0.00 0.00 0.00 54 1009.5
20260504180109 22 257 4.8 8.0 0.00 0.00 0.00 56 1009.5
20260504175606 22 294 1.6 16.1 0.00 0.00 0.00 55 1009.5
20260504175103 21 188 0.0 12.9 0.00 0.00 0.00 58 1009.5
20260504174601 21 277 6.4 11.3 0.00 0.00 0.00 57 1009.4
20260504174057 20 270 4.8 12.9 0.00 0.00 0.00 57 1009.4
20260504173554 21 120 3.2 9.7 0.00 0.00 0.00 58 1009.3
20260504173052 21 349 3.2 12.9 0.00 0.00 0.00 60 1009.5
20260504172548 21 294 3.2 12.9 0.00 0.00 0.00 57 1009.7
20260504172044 21 270 8.0 11.3 0.00 0.00 0.00 59 1009.8
20260504171541 20 262 14.5 14.5 0.00 0.00 0.00 60 1009.9
20260504171038 20 289 3.2 22.5 0.00 0.00 0.00 61 1009.9
20260504170534 21 303 4.8 16.1 0.00 0.00 0.00 60 1010.0
20260504150918 16 246 0.0 12.9 0.00 0.00 0.00 67 1011.5
20260504150415 16 261 0.0 11.3 0.00 0.00 0.00 67 1011.8
20260504140841 16 225 0.0 11.3 0.00 0.00 0.00 67 1011.9
20260504140337 15 246 1.6 20.9 0.00 0.00 0.00 65 1011.9
20260504130806 15 285 4.8 9.7 0.00 0.00 0.00 63 1011.7
20260504130302 14 225 3.2 29.0 0.00 0.00 0.00 62 1011.7
20260504120226 13 256 4.8 14.5 0.00 0.00 0.00 63 1011.6
20260504110653 9 26 0.0 4.8 0.00 0.00 0.00 76 1011.4
20260504110149 8 237 0.0 3.2 0.00 0.00 0.00 76 1011.5
20260504100615 6 146 4.8 4.8 0.00 0.00 0.00 92 1011.9
20260504100114 6 90 0.0 4.8 0.00 0.00 0.00 92 1012.0